Location: *
(50.9167°S, 179.4000°W)
Time: 21:28:50
(UTC+00:00)

Cosmos 1943 - Pass Details

Date: 03 March 2024
Orbit: 831 x 850 km, 71.0° (Epoch: 16 April)

Event Time Altitude Azimuth Distance (km) Brightness Sun altitude
Exits shadow 15:16:46 31° 273° (W) 1,455 4.0 -19.9°
Maximum altitude 15:18:45 41° 230° (SW) 1,214 3.9 -19.7°
Drops below altitude 10° 15:24:08 10° 159° (SSE) 2,483 6.5 -19.0°
Sets 15:26:45 0° 151° (SSE) 3,420 7.6 -18.7°
